Location: STAR School
(35.3054°N, 111.2976°W)
Time: 10:02:19
(UTC-07:00)

KKS-1 - Visible Passes

Search period start: 19 October 2019 00:00
Search period end: 29 October 2019 00:00
Orbit: 637 x 650 km, 98.3° (Epoch: 19 October)

Date Brightness Start Highest point End Pass type
(mag) Time Alt. Az. Time Alt. Az. Time Alt. Az.
21 Oct ? 05:46:11 10° ENE 05:46:39 10° ENE 05:47:06 10° ENE visible
22 Oct ? 06:07:49 10° ESE 06:10:54 19° ENE 06:14:00 10° NNE visible
25 Oct ? 05:47:30 10° ENE 05:48:14 10° ENE 05:48:59 10° NE visible
26 Oct ? 06:09:22 10° ESE 06:12:30 19° ENE 06:15:38 10° NNE visible
